Probability
0 0 0 0 0 0 0 0 0 0 0 0 0 0 0 1 2 2 2 2 2 1 0 0 0 0 0 0 0 0 0 0 0 0 0 0 0 0 1 2 2 1 0
0 0 0 1 1 1 1 0 0 0 0 0 0 0 0 0 1 1 1 1 1 0 0 0 0 0 0 0 0 0 0 0 0 0 0 0 0 0 0 1 1 0 0
0 0 0 1 2 2 2 1 0 0 0 0 0 0 0 0 0 0 0 0 0 0 0 0 0 0 0 0 0 0 0 0 0 0 0 0 0 0 0 0 0 0 0
0 0 0 1 2 2 2 2 1 0 0 0 0 0 0 0 0 0 0 0 0 0 0 0 0 0 0 0 0 0 0 0 0 0 0 0 0 0 0 0 0 0 0
0 0 0 0 1 1 1 1 1 0 0 0 0 0 0 0 0 0 0 0 0 0 0 0 0 0 0 0 0 0 0 0 0 0 0 0 0 0 0 0 0 0 0
0 0 0 0 0 0 0 0 0 0 0 0 0 0 0 0 0 0 0 0 0 0 0 0 0 0 0 0 0 0 0 0 0 0 0 0 0 0 0 0 0 0 0
0 0 0 0 0 0 0 0 0 0 0 0 0 0 0 0 0 0 0 0 0 0 0 0 0 0 0 0 0 0 0 0 0 0 0 0 0 0 0 0 0 0 0
0 0 0 0 0 0 0 0 0 0 0 0 0 0 0 0 0 0 0 0 0 0 0 0 0 0 0 0 0 0 0 0 0 0 0 0 0 0 0 0 0 0 0
0 0 0 0 0 0 0 0 0 0 0 0 0 0 0 0 0 0 0 0 0 0 0 0 0 0 0 0 0 1 1 1 0 0 0 0 0 0 0 0 0 0 0
0 0 0 0 0 0 0 0 0 0 0 0 0 0 0 0 0 0 0 0 0 0 0 0 0 0 0 0 1 2 2 1 0 0 0 0 0 0 0 0 0 0 0
0 0 0 0 0 0 0 0 0 0 0 0 0 0 0 0 0 0 0 0 0 0 0 0 0 0 0 0 1 1 1 0 0 0 0 0 0 0 0 1 1 0 0
0 0 0 0 0 0 0 0 0 0 0 0 0 0 0 0 0 0 0 0 0 0 0 0 0 0 0 0 0 0 0 0 0 0 0 0 0 0 0 1 1 1 0
0 0 0 0 0 0 0 0 0 0 0 0 0 0 0 0 0 0 0 0 0 0 0 0 0 0 0 0 0 0 0 0 0 0 0 1 1 0 0 1 1 2 1
0 0 0 0 0 0 0 0 0 0 0 0 0 0 0 0 0 0 0 0 0 0 0 0 0 0 0 0 0 0 0 0 0 0 0 1 1 0 0 0 1 2 2
0 0 0 0 0 0 0 0 0 0 0 0 0 0 0 0 0 0 0 0 0 0 0 0 0 0 0 0 0 0 0 0 0 0 0 0 0 0 0 0 0 1 1
0 0 0 0 0 0 0 0 0 0 0 0 0 0 0 0 0 0 0 0 0 0 0 0 0 0 0 0 0 0 0 0 0 0 0 0 0 0 0 0 0 0 0
1 1 1 0 0 0 0 0 0 0 0 0 0 0 0 0 0 0 0 0 0 0 0 0 0 0 0 0 0 0 0 0 0 0 0 0 0 1 1 0 0 0 0
2 2 1 0 0 0 0 0 0 0 0 0 0 0 0 0 0 0 0 0 0 0 0 0 0 0 0 0 0 0 0 0 0 0 0 1 1 1 1 0 0 0 0
3 3 2 1 1 0 0 0 0 0 0 0 0 0 0 0 0 0 0 0 0 0 0 0 0 0 0 0 0 0 0 0 0 0 0 1 2 1 0 0 0 0 0
2 2 3 2 2 1 0 0 0 0 0 0 0 0 0 0 0 0 0 0 0 0 0 0 0 0 0 0 0 0 0 0 0 0 0 0 1 1 0 0 0 0 0
1 2 2 3 2 1 0 0 0 0 0 0 0 0 0 0 0 0 0 0 0 0 0 0 0 0 0 0 0 0 0 0 0 0 0 0 0 0 0 0 0 0 0
1 1 1 2 2 1 0 0 0 0 0 0 0 0 0 0 0 0 0 0 0 0 0 0 0 0 0 0 0 0 0 0 0 0 0 0 0 0 0 0 0 0 0
1 1 1 2 3 2 1 0 0 0 0 0 0 0 0 0 0 0 0 0 0 0 0 0 0 0 0 0 0 0 0 0 0 0 0 0 0 0 0 0 0 0 0
3 3 3 3 3 2 1 0 0 0 0 0 0 0 0 0 0 0 0 0 0 0 0 0 0 0 0 0 0 0 0 0 0 0 0 0 0 0 0 0 0 0 0
5 4 3 3 3 2 1 0 0 0 0 0 0 0 0 0 0 0 0 0 0 0 0 0 0 0 0 0 0 0 0 0 0 0 0 0 0 0 0 0 0 0 0
6 5 4 3 3 2 1 0 0 0 0 0 0 0 0 0 0 0 0 0 0 0 0 0 0 0 0 0 0 0 0 0 0 0 0 0 0 0 0 0 0 0 0
Wind_Speed
7 9 10 10 11 11 11 10 11 11 11 11 11 10 10 10 10 10 9 9 9 9 9 9 9 9 10 10 10 9 9 8 8 9 10 11 11 11 11 10 8 6 9
10 10 11 11 11 11 11 10 10 10 11 11 10 10 10 10 10 9 9 8 8 8 8 9 9 9 10 10 9 9 8 7 7 6 7 9 11 11 11 11 10 7 9
10 10 10 11 11 11 11 11 10 10 10 10 10 10 10 10 9 9 8 8 8 8 8 8 9 9 10 9 9 9 8 7 6 6 5 4 7 12 11 11 11 10 9
11 9 10 11 11 11 11 11 10 10 10 10 10 10 10 9 9 9 8 8 9 8 8 8 8 9 9 9 8 8 7 7 7 8 5 7 7 12 12 12 11 10 9
11 10 10 11 11 11 11 11 10 10 10 10 10 10 10 9 9 9 9 8 8 8 8 8 8 9 9 8 7 7 7 7 8 7 6 7 6 11 12 12 11 11 10
11 11 10 11 11 11 11 10 10 11 10 10 10 9 9 9 9 9 9 8 8 8 8 8 8 8 8 7 7 7 7 7 6 5 6 6 6 11 12 12 12 12 11
11 11 10 12 12 11 10 10 10 10 10 9 9 9 9 9 9 9 9 8 8 8 8 8 8 8 8 7 6 7 7 6 3 5 6 6 7 12 12 12 12 12 12
10 10 11 12 12 11 11 10 9 9 9 8 8 8 8 8 9 9 9 8 7 7 8 8 8 7 7 6 6 6 7 7 6 8 7 6 10 12 12 12 12 12 12
9 9 9 9 10 11 10 9 8 8 7 6 6 5 6 6 8 8 9 8 7 7 7 8 7 7 6 5 4 5 6 7 5 5 8 6 10 12 12 12 11 11 12
6 7 7 8 9 8 7 8 7 6 5 4 4 4 4 5 6 8 8 7 7 7 7 6 6 5 4 3 2 4 5 5 5 7 5 7 11 11 11 11 11 11 11
5 5 5 6 6 6 7 7 6 6 4 3 4 4 4 3 3 4 8 7 6 5 5 5 4 4 3 1 1 2 3 2 5 6 5 9 11 11 11 11 11 11 11
4 4 5 5 5 5 5 4 3 3 3 2 2 3 2 2 3 6 6 5 4 4 4 3 3 3 3 1 1 1 1 4 5 5 6 11 11 11 11 11 11 11 10
4 3 4 4 5 5 3 3 1 1 1 1 2 3 2 3 3 3 2 2 2 3 2 2 2 2 1 2 2 2 3 4 4 5 6 11 11 12 12 11 11 11 11
4 3 3 4 5 4 3 2 2 1 1 1 1 2 3 1 2 2 2 1 1 1 1 1 1 3 4 4 4 4 4 3 4 4 5 11 11 11 11 11 11 11 11
5 3 3 3 4 5 3 1 3 2 1 2 1 1 3 2 2 2 2 2 2 2 1 2 3 4 5 5 5 5 5 5 5 5 4 10 11 11 11 11 11 11 11
6 5 3 3 4 3 3 2 3 2 2 2 1 2 4 2 2 2 3 2 2 2 2 2 3 3 3 3 4 4 4 4 4 4 4 6 9 10 10 10 11 11 11
6 6 4 3 4 4 4 3 3 2 2 2 2 2 3 3 3 3 3 2 2 2 2 2 3 2 2 2 2 3 3 3 3 3 4 4 4 7 9 10 10 11 11
5 7 5 4 4 5 4 3 2 3 3 3 2 3 3 3 4 3 3 2 2 2 2 2 2 2 3 2 2 2 2 2 3 2 3 3 3 4 6 9 10 10 11
5 6 6 4 4 5 4 2 2 3 3 3 3 3 3 3 4 4 2 2 3 3 2 2 3 2 2 2 1 1 1 2 2 3 3 3 3 4 3 5 8 10 11
5 6 6 5 4 4 2 2 2 3 2 3 3 2 3 3 4 3 2 3 3 3 2 2 2 2 1 1 1 1 1 1 2 2 2 2 2 4 4 4 3 5 9
5 6 6 6 5 4 2 2 2 2 1 2 2 2 2 2 3 3 2 2 3 2 2 2 2 2 1 1 1 1 0 1 2 2 2 2 2 3 3 3 3 3 3
5 5 6 6 6 5 3 2 2 2 1 2 1 2 2 2 2 2 2 2 2 2 2 2 2 1 1 1 1 1 1 2 2 2 1 1 2 2 3 4 4 3 3
6 5 6 6 6 6 5 2 2 2 1 1 1 1 1 2 2 2 1 1 2 2 2 1 1 1 1 2 2 2 1 0 1 1 1 2 2 2 1 2 3 4 5
7 6 6 6 6 6 6 3 3 3 2 2 2 2 1 2 2 1 1 1 1 2 2 1 1 1 1 1 2 1 1 2 1 1 2 1 2 2 2 3 4 4 4
7 5 5 5 5 6 5 4 3 2 2 2 2 3 2 2 2 1 1 1 1 2 1 1 2 1 1 1 1 1 2 1 0 1 0 1 1 1 2 2 2 3 4
6 5 4 5 5 5 5 5 4 3 2 2 2 2 2 2 1 1 1 1 1 1 1 1 1 1 1 1 1 1 1 1 1 1 0 0 0 0 1 2 2 2 2
Wind_Direction
91 90 82 82 80 78 75 76 76 75 76 75 74 72 69 66 66 66 66 67 67 65 64 65 66 64 61 57 55 55 56 55 58 62 64 59 57 55 53 50 53 63 70
101 96 86 85 82 79 77 77 77 75 74 73 72 71 69 68 68 69 69 69 69 67 67 66 67 65 63 58 54 51 49 44 42 53 66 64 60 56 53 52 56 64 66
101 101 91 86 83 79 77 75 75 72 73 74 73 71 69 68 68 68 67 70 72 72 70 69 68 68 65 60 54 49 40 30 28 37 50 64 64 57 54 54 59 63 64
101 97 93 90 85 81 77 74 74 75 76 76 75 73 71 69 68 67 66 71 73 73 72 71 71 72 68 63 54 45 29 14 25 37 50 57 56 58 55 53 57 60 60
96 95 96 94 89 85 81 78 76 78 79 79 77 73 71 68 66 65 65 69 71 71 71 70 71 72 70 63 52 37 20 12 29 41 60 64 58 56 56 54 54 55 54
104 103 102 97 93 89 84 82 80 81 80 78 75 72 69 67 66 66 65 68 71 71 73 73 72 73 69 62 49 29 11 16 31 57 66 65 61 58 57 56 55 53 50
110 112 112 107 101 95 91 87 84 82 80 79 76 73 70 67 68 69 66 67 71 72 73 75 76 77 70 61 45 24 6 13 56 75 73 69 63 62 60 58 55 53 49
113 114 117 118 111 101 93 89 87 84 82 82 81 78 76 74 73 71 69 68 72 75 76 78 79 81 74 64 46 23 9 14 56 78 76 69 67 65 61 58 55 51 48
113 121 131 132 121 112 105 98 94 93 92 93 95 93 89 86 84 79 73 69 72 78 82 84 85 87 80 68 45 15 12 20 35 64 75 68 68 66 61 58 54 50 48
117 124 128 133 138 134 123 119 117 115 118 125 129 133 128 116 105 94 82 74 76 85 90 93 95 99 94 77 37 7 5 20 57 64 64 67 66 64 61 57 53 49 47
115 121 120 119 123 127 131 135 150 152 158 164 178 188 177 167 147 108 88 88 85 97 102 108 116 123 128 140 358 355 15 66 79 70 59 65 66 63 60 57 54 49 45
120 122 122 126 127 117 112 132 158 151 160 190 162 153 163 103 85 96 111 112 109 120 131 145 162 178 199 191 173 355 44 70 78 81 66 66 65 62 57 55 51 47 44
126 120 122 130 123 122 121 129 114 108 140 126 94 112 97 96 116 122 144 145 145 150 168 166 205 210 139 81 71 70 53 61 70 76 71 69 63 59 56 53 50 46 44
125 125 126 132 126 119 109 115 118 106 113 84 13 103 96 77 82 92 98 96 109 99 58 38 42 64 61 61 59 59 63 68 80 89 81 75 69 62 57 54 51 47 46
134 130 104 86 91 102 100 117 114 91 54 78 11 60 97 96 94 96 91 64 74 80 70 32 42 56 54 47 44 52 52 59 80 89 91 84 77 68 61 56 52 47 46
143 132 115 113 99 105 118 107 85 95 95 77 14 40 91 86 84 80 92 73 59 69 72 58 62 65 70 65 51 48 46 51 72 102 112 93 84 75 65 59 55 49 46
144 132 128 116 100 86 75 65 77 72 86 81 33 22 69 84 84 75 74 74 57 53 73 63 61 58 75 83 82 76 67 49 59 76 107 117 102 81 72 64 58 52 48
138 130 132 128 107 90 75 60 65 60 58 65 44 22 31 67 85 72 62 67 60 44 56 63 60 51 56 57 56 49 71 53 60 64 84 105 114 103 83 74 64 57 50
140 134 137 130 120 111 108 94 65 74 55 59 51 30 17 32 72 85 69 68 69 54 44 55 56 51 59 55 81 86 88 77 49 45 64 77 91 108 109 93 80 67 56
146 141 135 125 124 118 110 97 72 62 54 62 61 48 26 25 50 69 77 74 74 66 41 50 70 57 62 48 56 75 108 117 93 64 58 69 77 100 116 120 110 80 65
157 150 143 149 147 127 113 105 105 101 82 74 71 57 40 43 52 62 58 66 76 84 72 62 62 47 13 51 61 16 14 95 95 97 72 61 69 77 94 104 105 105 81
168 160 158 159 148 138 136 143 144 136 122 99 73 55 40 56 51 72 80 77 86 88 66 47 60 36 345 28 81 63 26 19 351 102 104 91 72 63 58 68 75 86 92
170 172 165 156 145 142 143 131 108 87 81 100 108 90 39 71 73 61 79 99 111 103 104 78 68 59 6 337 42 74 86 83 322 358 84 97 91 72 54 64 70 69 79
173 171 165 161 154 147 140 148 150 160 179 168 154 156 154 118 93 63 51 69 91 104 113 100 89 63 65 343 353 29 65 111 121 342 335 55 99 88 69 54 55 60 72
168 166 165 159 149 145 149 151 168 189 183 144 138 147 150 136 129 131 93 76 90 102 110 101 76 57 73 31 352 353 6 14 313 124 305 329 13 79 93 84 71 65 68
154 155 157 153 151 152 156 164 188 192 171 149 153 153 154 140 157 168 144 126 145 128 115 98 96 95 74 36 7 7 36 26 354 34 38 324 340 215 105 96 87 89 87